• In Hungary
  • List of Countries
  • For 7 days
  • Water Temperature
  • Satellite Maps
  • Weather Map
  • News
  • Weather Widgets
  • user-avatar
    Login

    Hourly Weather Imphal

    Today, 17 July, Tuesday

    Time Temperature Precipitation Wind Pressure Humidity
    00:00 +22°C° 0 mm 0 mps 687 mmHg 97%
    01:00 +22°C° 0.3 mm 0 mps 686 mmHg 97%
    02:00 +22°C° 0.3 mm 0 mps 686 mmHg 97%
    03:00 +22°C° 0.3 mm 0 mps 686 mmHg 97%
    04:00 +22°C° 0.2 mm 0 mps 686 mmHg 96%
    05:00 +22°C° 0.2 mm 0 mps 686 mmHg 96%
    06:00 +23°C° 0 mm 0 mps 687 mmHg 93%
    07:00 +24°C° 0.1 mm 0 mps 687 mmHg 89%
    08:00 +25°C° 0.1 mm 0 mps 687 mmHg 84%
    09:00 +29°C° 0.1 mm 1 mps 687 mmHg 79%
    10:00 +30°C° 0.2 mm 1 mps 687 mmHg 74%
    11:00 +31°C° 0.2 mm 1 mps 687 mmHg 69%
    12:00 +32°C° 0 mm 1 mps 687 mmHg 66%
    13:00 +32°C° 0.9 mm 1 mps 687 mmHg 68%
    14:00 +32°C° 0.9 mm 1 mps 686 mmHg 71%
    15:00 +31°C° 0.9 mm 1 mps 686 mmHg 73%
    16:00 +30°C° 1.2 mm 1 mps 685 mmHg 79%
    17:00 +27°C° 1.2 mm 0 mps 685 mmHg 86%
    18:00 +25°C° 1.2 mm 0 mps 685 mmHg 92%
    19:00 +25°C° 1 mm 0 mps 685 mmHg 93%
    20:00 +24°C° 1 mm 0 mps 685 mmHg 94%
    21:00 +23°C° 1 mm 0 mps 686 mmHg 95%
    22:00 +23°C° 0.8 mm 0 mps 686 mmHg 96%
    23:00 +23°C° 0.8 mm 0 mps 686 mmHg 96%

    Tomorrow, 18 July, Wednesday

    Time Temperature Precipitation Wind Pressure Humidity
    00:00 +23°C° 0.8 mm 0 mps 686 mmHg 96%
    01:00 +22°C° 0.5 mm 0 mps 686 mmHg 96%
    02:00 +22°C° 0.5 mm 0 mps 686 mmHg 96%
    03:00 +22°C° 0.5 mm 0 mps 685 mmHg 96%
    04:00 +22°C° 0.3 mm 0 mps 686 mmHg 96%
    05:00 +22°C° 0.3 mm 0 mps 686 mmHg 95%
    06:00 +23°C° 0.3 mm 0 mps 686 mmHg 94%
    07:00 +24°C° 0.1 mm 0 mps 686 mmHg 88%
    08:00 +26°C° 0.1 mm 0 mps 687 mmHg 81%
    09:00 +30°C° 0.1 mm 1 mps 687 mmHg 75%
    10:00 +31°C° 0.4 mm 1 mps 687 mmHg 72%
    11:00 +32°C° 0.4 mm 1 mps 687 mmHg 68%
    12:00 +33°C° 0.4 mm 1 mps 687 mmHg 65%
    13:00 +33°C° 0.3 mm 1 mps 686 mmHg 64%
    14:00 +33°C° 0.3 mm 1 mps 685 mmHg 62%
    15:00 +34°C° 0.3 mm 1 mps 685 mmHg 60%
    16:00 +32°C° 0.2 mm 1 mps 684 mmHg 67%
    17:00 +31°C° 0.2 mm 1 mps 684 mmHg 73%
    18:00 +30°C° 0.2 mm 1 mps 684 mmHg 80%
    19:00 +26°C° 0.2 mm 0 mps 684 mmHg 84%
    20:00 +25°C° 0.2 mm 0 mps 684 mmHg 88%
    21:00 +24°C° 0.2 mm 0 mps 685 mmHg 92%
    22:00 +24°C° 0.1 mm 0 mps 685 mmHg 92%
    23:00 +23°C° 0.1 mm 0 mps 685 mmHg 93%

    Day after tomorrow, 19 July, Thursday

    Time Temperature Precipitation Wind Pressure Humidity
    00:00 +23°C° 0.1 mm 0 mps 685 mmHg 94%
    01:00 +23°C° 0.1 mm 0 mps 685 mmHg 94%
    02:00 +23°C° 0.1 mm 0 mps 685 mmHg 94%
    03:00 +23°C° 0.1 mm 0 mps 684 mmHg 94%
    04:00 +23°C° 0.1 mm 0 mps 685 mmHg 93%
    05:00 +23°C° 0.1 mm 0 mps 685 mmHg 92%
    06:00 +23°C° 0.1 mm 0 mps 685 mmHg 91%
    07:00 +25°C° 0 mm 0 mps 686 mmHg 85%
    08:00 +27°C° 0 mm 0 mps 686 mmHg 78%
    09:00 +31°C° 0 mm 1 mps 686 mmHg 71%
    10:00 +32°C° 0.1 mm 1 mps 686 mmHg 66%
    11:00 +33°C° 0.1 mm 1 mps 686 mmHg 60%
    12:00 +35°C° 0.1 mm 1 mps 686 mmHg 55%
    13:00 +35°C° 0.1 mm 1 mps 685 mmHg 54%
    14:00 +35°C° 0.1 mm 1 mps 684 mmHg 54%
    15:00 +35°C° 0.1 mm 1 mps 684 mmHg 54%
    16:00 +33°C° 0 mm 1 mps 683 mmHg 61%
    17:00 +30°C° 0 mm 0 mps 683 mmHg 67%
    18:00 +29°C° 0 mm 0 mps 683 mmHg 74%
    19:00 +28°C° 0 mm 0 mps 683 mmHg 78%
    20:00 +26°C° 0 mm 0 mps 684 mmHg 82%
    21:00 +25°C° 0 mm 0 mps 684 mmHg 86%
    22:00 +25°C° 0.3 mm 0 mps 684 mmHg 88%
    23:00 +24°C° 0.3 mm 0 mps 684 mmHg 90%

    20 July, Friday

    Time Temperature Precipitation Wind Pressure Humidity
    00:00 +24°C° 0.3 mm 0 mps 684 mmHg 92%
    01:00 +24°C° 0.4 mm 0 mps 684 mmHg 93%
    02:00 +26°C° 0.4 mm 1 mps 683 mmHg 94%
    03:00 +25°C° 0.4 mm 1 mps 683 mmHg 95%
    04:00 +25°C° 0.3 mm 1 mps 683 mmHg 95%
    05:00 +24°C° 0.3 mm 0 mps 684 mmHg 94%
    06:00 +24°C° 0.3 mm 0 mps 684 mmHg 94%
    07:00 +28°C° 0.1 mm 1 mps 684 mmHg 87%
    08:00 +29°C° 0.1 mm 1 mps 685 mmHg 80%
    09:00 +31°C° 0.1 mm 1 mps 685 mmHg 73%
    10:00 +33°C° 0.1 mm 1 mps 685 mmHg 67%
    11:00 +34°C° 0.1 mm 1 mps 685 mmHg 61%
    12:00 +36°C° 0.1 mm 1 mps 685 mmHg 55%
    13:00 +35°C° 0.4 mm 1 mps 684 mmHg 57%
    14:00 +35°C° 0.4 mm 1 mps 683 mmHg 59%
    15:00 +34°C° 0.4 mm 1 mps 682 mmHg 60%
    16:00 +33°C° 0.6 mm 1 mps 682 mmHg 68%
    17:00 +31°C° 0.6 mm 1 mps 682 mmHg 77%
    18:00 +28°C° 0.6 mm 0 mps 682 mmHg 85%
    19:00 +27°C° 1.3 mm 0 mps 682 mmHg 87%
    20:00 +25°C° 1.3 mm 0 mps 683 mmHg 90%
    21:00 +24°C° 1.3 mm 0 mps 683 mmHg 93%
    22:00 +24°C° 0.8 mm 0 mps 683 mmHg 93%
    23:00 +24°C° 0.8 mm 0 mps 683 mmHg 94%

    21 July, Saturday

    Time Temperature Precipitation Wind Pressure Humidity
    00:00 +23°C° 0.8 mm 0 mps 683 mmHg 94%
    01:00 +23°C° 0.7 mm 0 mps 683 mmHg 94%
    02:00 +23°C° 0.7 mm 0 mps 683 mmHg 94%
    03:00 +23°C° 0.7 mm 0 mps 683 mmHg 94%
    04:00 +23°C° 0.5 mm 0 mps 683 mmHg 93%
    05:00 +23°C° 0.5 mm 0 mps 683 mmHg 93%
    06:00 +23°C° 0.5 mm 0 mps 683 mmHg 92%
    07:00 +25°C° 0.4 mm 0 mps 684 mmHg 86%
    08:00 +29°C° 0.4 mm 1 mps 684 mmHg 80%
    09:00 +30°C° 0.4 mm 1 mps 685 mmHg 75%
    10:00 +31°C° 0.8 mm 1 mps 684 mmHg 72%
    11:00 +32°C° 0.8 mm 1 mps 684 mmHg 70%
    12:00 +32°C° 0.8 mm 1 mps 684 mmHg 68%
    13:00 +32°C° 1.1 mm 1 mps 683 mmHg 71%
    14:00 +31°C° 1.1 mm 1 mps 683 mmHg 73%
    15:00 +31°C° 1.1 mm 1 mps 682 mmHg 76%
    16:00 +30°C° 1.1 mm 1 mps 682 mmHg 82%
    17:00 +28°C° 1.1 mm 1 mps 682 mmHg 87%
    18:00 +27°C° 1.1 mm 1 mps 682 mmHg 92%
    19:00 +27°C° 0.6 mm 1 mps 683 mmHg 93%
    20:00 +26°C° 0.6 mm 1 mps 683 mmHg 94%
    21:00 +25°C° 0.6 mm 1 mps 684 mmHg 95%
    22:00 +25°C° 0.5 mm 1 mps 684 mmHg 95%
    23:00 +25°C° 0.5 mm 1 mps 684 mmHg 95%

    22 July, Sunday

    Time Temperature Precipitation Wind Pressure Humidity
    00:00 +25°C° 0.5 mm 1 mps 683 mmHg 96%
    01:00 +25°C° 0.6 mm 1 mps 683 mmHg 95%
    02:00 +25°C° 0.6 mm 1 mps 683 mmHg 95%
    03:00 +25°C° 0.6 mm 1 mps 683 mmHg 95%
    04:00 +24°C° 0.3 mm 1 mps 683 mmHg 95%
    05:00 +24°C° 0.3 mm 1 mps 683 mmHg 95%
    06:00 +24°C° 0.3 mm 1 mps 684 mmHg 95%
    07:00 +25°C° 0.2 mm 1 mps 684 mmHg 91%
    08:00 +26°C° 0.2 mm 2 mps 684 mmHg 86%
    09:00 +27°C° 0.2 mm 2 mps 685 mmHg 82%
    10:00 +26°C° 0.3 mm 2 mps 684 mmHg 84%
    11:00 +26°C° 0.3 mm 1 mps 684 mmHg 86%
    12:00 +26°C° 0.3 mm 1 mps 684 mmHg 87%
    13:00 +26°C° 0.4 mm 1 mps 683 mmHg 87%
    14:00 +26°C° 0.4 mm 1 mps 683 mmHg 87%
    15:00 +26°C° 0.4 mm 1 mps 682 mmHg 87%
    16:00 +25°C° 0.3 mm 1 mps 683 mmHg 88%
    17:00 +25°C° 0.3 mm 1 mps 683 mmHg 90%
    18:00 +25°C° 0.3 mm 1 mps 683 mmHg 91%
    19:00 +24°C° 0.2 mm 1 mps 684 mmHg 92%
    20:00 +24°C° 0.2 mm 1 mps 684 mmHg 93%
    21:00 +24°C° 0.2 mm 1 mps 685 mmHg 94%
    22:00 +24°C° 0.4 mm 1 mps 685 mmHg 94%
    23:00 +24°C° 0.4 mm 1 mps 685 mmHg 95%
    Show more